Hourly Weather Kankan

Today, 24 September, Thursday

Time Temperature Precipitation Wind Pressure Humidity
00:00 +23°C° 0.6 mm 1 mps 685 mmHg 88%
01:00 +22°C° 0 mm 1 mps 685 mmHg 90%
02:00 +22°C° 0.1 mm 1 mps 685 mmHg 89%
03:00 +22°C° 0.1 mm 1 mps 685 mmHg 89%
04:00 +21°C° 0.1 mm 2 mps 684 mmHg 89%
05:00 +21°C° 0.1 mm 2 mps 685 mmHg 90%
06:00 +21°C° 0.1 mm 2 mps 685 mmHg 90%
07:00 +21°C° 0 mm 2 mps 686 mmHg 91%
08:00 +24°C° 0 mm 1 mps 687 mmHg 83%
09:00 +27°C° 0 mm 1 mps 687 mmHg 75%
10:00 +29°C° 0 mm 1 mps 688 mmHg 67%
11:00 +30°C° 0.6 mm 1 mps 688 mmHg 62%
12:00 +31°C° 0.6 mm 1 mps 687 mmHg 56%
13:00 +31°C° 0 mm 2 mps 687 mmHg 52%
14:00 +31°C° 0.9 mm 2 mps 686 mmHg 56%
15:00 +30°C° 0.9 mm 1 mps 686 mmHg 60%
16:00 +29°C° 0.9 mm 1 mps 685 mmHg 64%
17:00 +28°C° 1.3 mm 1 mps 685 mmHg 71%
18:00 +26°C° 1.3 mm 1 mps 685 mmHg 78%
19:00 +24°C° 1.3 mm 2 mps 685 mmHg 84%
20:00 +23°C° 1 mm 1 mps 685 mmHg 86%
21:00 +23°C° 1 mm 1 mps 685 mmHg 88%
22:00 +23°C° 1 mm 1 mps 686 mmHg 89%
23:00 +21°C° 0.2 mm 2 mps 685 mmHg 90%

Tomorrow, 25 September, Friday

Time Temperature Precipitation Wind Pressure Humidity
00:00 +21°C° 0.2 mm 2 mps 685 mmHg 90%
01:00 +21°C° 0.2 mm 2 mps 685 mmHg 91%
02:00 +21°C° 0.1 mm 2 mps 685 mmHg 91%
03:00 +22°C° 0.1 mm 1 mps 684 mmHg 91%
04:00 +22°C° 0.1 mm 1 mps 684 mmHg 92%
05:00 +22°C° 0.4 mm 1 mps 685 mmHg 92%
06:00 +22°C° 0.4 mm 1 mps 685 mmHg 92%
07:00 +22°C° 0.4 mm 1 mps 686 mmHg 92%
08:00 +24°C° 0.4 mm 1 mps 686 mmHg 86%
09:00 +26°C° 0.4 mm 1 mps 687 mmHg 79%
10:00 +28°C° 0.4 mm 1 mps 688 mmHg 73%
11:00 +29°C° 1.3 mm 1 mps 687 mmHg 68%
12:00 +30°C° 1.3 mm 1 mps 687 mmHg 63%
13:00 +31°C° 1.3 mm 1 mps 687 mmHg 58%
14:00 +30°C° 1.8 mm 1 mps 686 mmHg 62%
15:00 +29°C° 1.8 mm 1 mps 685 mmHg 66%
16:00 +28°C° 1.8 mm 2 mps 684 mmHg 71%
17:00 +27°C° 1.3 mm 2 mps 684 mmHg 77%
18:00 +25°C° 1.3 mm 2 mps 684 mmHg 83%
19:00 +23°C° 1.3 mm 1 mps 684 mmHg 88%
20:00 +23°C° 1.2 mm 1 mps 684 mmHg 89%
21:00 +22°C° 1.2 mm 1 mps 684 mmHg 90%
22:00 +22°C° 1.2 mm 1 mps 685 mmHg 90%
23:00 +22°C° 1.1 mm 1 mps 685 mmHg 91%

Day after tomorrow, 26 September, Saturday

Time Temperature Precipitation Wind Pressure Humidity
00:00 +21°C° 1.1 mm 1 mps 685 mmHg 92%
01:00 +21°C° 1.1 mm 1 mps 685 mmHg 93%
02:00 +21°C° 0.5 mm 1 mps 684 mmHg 93%
03:00 +20°C° 0.5 mm 2 mps 684 mmHg 94%
04:00 +20°C° 0.5 mm 2 mps 683 mmHg 94%
05:00 +20°C° 0.1 mm 2 mps 684 mmHg 93%
06:00 +21°C° 0.1 mm 1 mps 684 mmHg 92%
07:00 +22°C° 0.1 mm 1 mps 685 mmHg 91%
08:00 +23°C° 0.1 mm 1 mps 685 mmHg 84%
09:00 +25°C° 0.1 mm 1 mps 686 mmHg 78%
10:00 +27°C° 0.1 mm 1 mps 686 mmHg 71%
11:00 +28°C° 0.6 mm 1 mps 686 mmHg 66%
12:00 +29°C° 0.6 mm 1 mps 685 mmHg 60%
13:00 +30°C° 0.6 mm 1 mps 685 mmHg 55%
14:00 +30°C° 0.1 mm 1 mps 684 mmHg 54%
15:00 +30°C° 0.1 mm 1 mps 684 mmHg 53%
16:00 +28°C° 0.1 mm 0 mps 683 mmHg 53%
17:00 +26°C° 0.2 mm 0 mps 683 mmHg 60%
18:00 +26°C° 0.2 mm 1 mps 683 mmHg 68%
19:00 +24°C° 0.2 mm 1 mps 683 mmHg 76%
20:00 +24°C° 0.4 mm 1 mps 683 mmHg 79%
21:00 +23°C° 0.4 mm 1 mps 684 mmHg 82%
22:00 +23°C° 0.4 mm 1 mps 684 mmHg 85%
23:00 +23°C° 0.2 mm 1 mps 684 mmHg 85%

27 September, Sunday

Time Temperature Precipitation Wind Pressure Humidity
00:00 +22°C° 0.2 mm 1 mps 684 mmHg 85%
01:00 +22°C° 0.2 mm 1 mps 683 mmHg 85%
02:00 +22°C° 0.1 mm 1 mps 683 mmHg 86%
03:00 +21°C° 0.1 mm 2 mps 683 mmHg 87%
04:00 +21°C° 0.1 mm 2 mps 683 mmHg 88%
05:00 +21°C° 0 mm 2 mps 683 mmHg 88%
06:00 +21°C° 0 mm 2 mps 683 mmHg 88%
07:00 +21°C° 0 mm 2 mps 683 mmHg 89%
08:00 +23°C° 0 mm 2 mps 684 mmHg 83%
09:00 +25°C° 0 mm 2 mps 685 mmHg 78%
10:00 +27°C° 0 mm 2 mps 686 mmHg 72%
11:00 +28°C° 0.7 mm 2 mps 685 mmHg 69%
12:00 +29°C° 0.7 mm 2 mps 685 mmHg 66%
13:00 +30°C° 0.7 mm 2 mps 685 mmHg 63%
14:00 +29°C° 1.2 mm 2 mps 684 mmHg 66%
15:00 +28°C° 1.2 mm 2 mps 683 mmHg 70%
16:00 +28°C° 1.2 mm 2 mps 683 mmHg 73%
17:00 +26°C° 1.5 mm 2 mps 683 mmHg 78%
18:00 +24°C° 1.5 mm 1 mps 683 mmHg 84%
19:00 +23°C° 1.5 mm 1 mps 683 mmHg 89%
20:00 +23°C° 1 mm 1 mps 683 mmHg 89%
21:00 +22°C° 1 mm 1 mps 684 mmHg 88%
22:00 +22°C° 1 mm 1 mps 684 mmHg 88%
23:00 +22°C° 0 mm 1 mps 684 mmHg 87%

28 September, Monday

Time Temperature Precipitation Wind Pressure Humidity
00:00 +22°C° 0 mm 1 mps 684 mmHg 86%
01:00 +22°C° 0 mm 1 mps 684 mmHg 85%
02:00 +21°C° 0 mm 1 mps 683 mmHg 86%
03:00 +21°C° 0 mm 1 mps 683 mmHg 87%
04:00 +21°C° 0 mm 1 mps 683 mmHg 88%
05:00 +21°C° 0 mm 1 mps 683 mmHg 88%
06:00 +21°C° 0 mm 1 mps 684 mmHg 89%
07:00 +22°C° 0 mm 1 mps 684 mmHg 89%
08:00 +23°C° 0.1 mm 1 mps 685 mmHg 83%
09:00 +25°C° 0.1 mm 1 mps 686 mmHg 78%
10:00 +25°C° 0.1 mm 0 mps 686 mmHg 72%
11:00 +28°C° 1.4 mm 1 mps 686 mmHg 70%
12:00 +28°C° 1.4 mm 1 mps 685 mmHg 67%
13:00 +29°C° 1.4 mm 1 mps 685 mmHg 65%
14:00 +29°C° 1.9 mm 1 mps 684 mmHg 68%
15:00 +28°C° 1.9 mm 1 mps 684 mmHg 70%
16:00 +28°C° 1.9 mm 1 mps 683 mmHg 73%
17:00 +26°C° 0.9 mm 1 mps 683 mmHg 78%
18:00 +24°C° 0.9 mm 1 mps 683 mmHg 83%
19:00 +23°C° 0.9 mm 1 mps 683 mmHg 89%
20:00 +23°C° 1 mm 1 mps 683 mmHg 89%
21:00 +22°C° 1 mm 1 mps 684 mmHg 90%
22:00 +22°C° 1 mm 1 mps 684 mmHg 91%
23:00 +22°C° 0.4 mm 1 mps 684 mmHg 91%

29 September, Tuesday

Time Temperature Precipitation Wind Pressure Humidity
00:00 +22°C° 0.4 mm 1 mps 684 mmHg 91%
01:00 +22°C° 0.4 mm 1 mps 684 mmHg 90%
02:00 +22°C° 0.8 mm 1 mps 684 mmHg 90%
03:00 +22°C° 0.8 mm 1 mps 684 mmHg 90%
04:00 +22°C° 0.8 mm 1 mps 683 mmHg 89%
05:00 +22°C° 0.8 mm 1 mps 684 mmHg 89%
06:00 +20°C° 0.8 mm 0 mps 684 mmHg 89%
07:00 +20°C° 0.8 mm 0 mps 684 mmHg 88%
08:00 +21°C° 0.1 mm 0 mps 685 mmHg 86%
09:00 +22°C° 0.1 mm 0 mps 686 mmHg 83%
10:00 +23°C° 0.1 mm 0 mps 686 mmHg 80%
11:00 +25°C° 0.7 mm 0 mps 686 mmHg 74%
12:00 +27°C° 0.7 mm 0 mps 685 mmHg 68%
13:00 +28°C° 0.7 mm 0 mps 685 mmHg 62%
14:00 +30°C° 1 mm 1 mps 685 mmHg 63%
15:00 +30°C° 1 mm 1 mps 684 mmHg 64%
16:00 +29°C° 1 mm 1 mps 684 mmHg 65%
17:00 +27°C° 1.1 mm 1 mps 683 mmHg 72%
18:00 +26°C° 1.1 mm 1 mps 683 mmHg 79%
19:00 +22°C° 1.1 mm 0 mps 683 mmHg 86%
20:00 +23°C° 2.4 mm 1 mps 684 mmHg 88%
21:00 +23°C° 2.4 mm 1 mps 684 mmHg 91%
22:00 +22°C° 2.4 mm 1 mps 684 mmHg 94%
23:00 +22°C° 0.2 mm 1 mps 684 mmHg 93%
Show more